User: anonymous   Login
Location: Unspecified
(0.0000°N, 0.0000°E)
Time: 20:00:26
(UTC+00:00)
Language:

EXOCUBE - Orbit

View from above orbital plane
View from above orbital plane
View from above satellite
View from above satellite

Ground track
Ground track

The orbit data is extracted from the following two-line orbital elements,

1 40380U 15003E   18016.81886877 +.00000892 +00000-0 +45203-4 0  9990
2 40380 099.1140 243.6274 0144426 030.2191 330.7266 15.12170459163064
Epoch (UTC): 16 January 2018 19:39:10
Eccentricity: 0.0144426
inclination: 99.1140°
perigee height: 430 km
apogee height: 629 km
right ascension of ascending node: 243.6274°
argument of perigee: 30.2191°
revolutions per day: 15.12170459
mean anomaly at epoch: 330.7266°
orbit number at epoch: 16306

The dashed part of the orbit path shows where the satellite is in the earth's shadow,  

DLR